Home   Weather   Escondido   Past weeks

Flag for USA Past Weather in Escondido, California, USA — Yesterday and Last 2 Weeks

Now
52 °F

Clear.


Feels Like: 52 °F
Forecast: 52 / 80 °F
Wind: No wind

Location: Ramona Airport

Current Time: Apr 27, 2017 at 11:55:13 pm

Latest Report: Apr 27, 2017 at 10:53 pm


Visibility: 10 mi

Pressure: 29.77 "Hg

Humidity: 93%

Dew Point: 50 °F

Location of EscondidoLocation

Past Weather in Escondido — Graph

°F

Escondido Temperature Yesterday

Maximum temperature yesterday: 77 °F (at 1:53 pm)
Minimum temperature yesterday: 44 °F (at 4:53 am)
Average temperature yesterday: 61 °F

High & Low Weather Summary for the Past Weeks

 TemperatureHumidityPressure
High90 °F (Apr 21, 1:53 pm)100% (Apr 14, 5:35 am)30.13 "Hg (Apr 14, 5:35 am)
Low39 °F (Apr 14, 5:53 am)18% (Apr 22, 2:53 pm)29.74 "Hg (Apr 27, 3:53 pm)
Average60 °F74%29.95 "Hg
* Reported Apr 12 9:53 pm — Apr 27 9:53 pm, Escondido, Weather by CustomWeather, © 2017

Note: Actual official high and low records may vary slightly from our data, if they occured in-between our weather recording intervals... More about our weather records

Advertising

Escondido Weather History for the Previous 24 Hours

Scroll right to see more
 ConditionsComfort  
Time TempWeatherWind HumidityBarometerVisibility
9:53 pm
Thu, Apr 27
55 °FClear.No wind90%29.77 "Hg10 mi
8:53 pm58 °FClear.No wind84%29.76 "Hg10 mi
7:53 pm60 °FLight rain. Clear.No wind78%29.76 "Hg10 mi
6:53 pm63 °FSunny.5 mph75%29.75 "Hg10 mi
5:53 pm66 °FSunny.8 mph70%29.76 "Hg10 mi
4:53 pm67 °FSunny.12 mph68%29.75 "Hg10 mi
3:53 pm71 °FSunny.10 mph59%29.74 "Hg10 mi
2:53 pm72 °FSunny.5 mph57%29.75 "Hg10 mi
1:53 pm73 °FPassing clouds.16 mph57%29.76 "Hg10 mi
12:53 pm73 °FSunny.8 mph57%29.76 "Hg10 mi
11:53 am70 °FSunny.5 mph64%29.79 "Hg10 mi
10:53 am68 °FPassing clouds.7 mph65%29.81 "Hg10 mi
9:53 am64 °FPassing clouds.No wind73%29.81 "Hg10 mi
8:53 am60 °FScattered clouds.3 mph80%29.81 "Hg10 mi
8:20 am55 °FFog.No wind96%29.84 "Hg4 mi
7:53 am53 °FFog.No wind100%29.80 "Hg0 mi
6:53 am52 °FFog.No wind100%29.80 "Hg0 mi
6:27 am51 °FFog.No wind100%29.82 "Hg0 mi
6:18 am50 °FFog.No wind96%29.82 "Hg1 mi
5:44 am49 °FPassing clouds.No wind93%29.81 "Hg10 mi
5:35 am47 °FPassing clouds.No wind97%29.82 "Hg10 mi
4:53 am48 °FClear.3 mph96%29.80 "Hg9 mi
3:53 am50 °FClear.No wind93%29.80 "Hg10 mi
2:53 am51 °FClear.3 mph92%29.80 "Hg10 mi
1:53 am53 °FClear.No wind89%29.82 "Hg10 mi
12:53 am53 °FClear.No wind89%29.83 "Hg10 mi
11:53 pm
Wed, Apr 26
54 °FClear.3 mph90%29.84 "Hg10 mi
Weather by CustomWeather, © 2017

See weather overviewHow to use our weather pages